owner,sensor,date,latitude,longitude,dew_point_temperature,qcFlag 
ADCP,ioos:station:wmo:42361:1,2007-11-20T23:00:00Z,27.5500,-92.4900,19.0,11111222 
ADCP,ioos:station:wmo:42361:1,2007-11-21T00:00:00Z,27.5500,-92.4900,19.0,11111222 
ADCP,ioos:station:wmo:42361:1,2007-11-21T01:00:00Z,27.5500,-92.4900,19.0,11111222 
ADCP,ioos:station:wmo:42361:1,2007-11-21T02:00:00Z,27.5500,-92.4900,19.0,11111222 
ADCP,ioos:station:wmo:42361:1,2007-11-21T03:00:00Z,27.5500,-92.4900,19.0,11111222 
ADCP,ioos:station:wmo:42361:1,2007-11-21T04:00:00Z,27.5500,-92.4900,18.0,11111222 
ADCP,ioos:station:wmo:42361:1,2007-11-21T05:00:00Z,27.5500,-92.4900,19.0,11111222 
ADCP,ioos:station:wmo:42361:1,2007-11-21T06:00:00Z,27.5500,-92.4900,19.0,11111222 
ADCP,ioos:station:wmo:42361:1,2007-11-21T07:00:00Z,27.5500,-92.4900,19.0,11111222 
ADCP,ioos:station:wmo:42361:1,2007-11-21T08:00:00Z,27.5500,-92.4900,19.0,11111222 
ADCP,ioos:station:wmo:42361:1,2007-11-21T09:00:00Z,27.5500,-92.4900,19.0,11111222 
ADCP,ioos:station:wmo:42361:1,2007-11-21T10:00:00Z,27.5500,-92.4900,19.0,11111222 
ADCP,ioos:station:wmo:42361:1,2007-11-21T11:00:00Z,27.5500,-92.4900,19.0,11111222 
ADCP,ioos:station:wmo:42361:1,2007-11-21T12:00:00Z,27.5500,-92.4900,19.0,11111222 
ADCP,ioos:station:wmo:42361:1,2007-11-21T13:00:00Z,27.5500,-92.4900,19.0,11111222 
ADCP,ioos:station:wmo:42361:1,2007-11-21T14:00:00Z,27.5500,-92.4900,19.0,11111222 
ADCP,ioos:station:wmo:42361:1,2007-11-21T15:00:00Z,27.5500,-92.4900,19.0,11111222 
ADCP,ioos:station:wmo:42361:1,2007-11-21T16:00:00Z,27.5500,-92.4900,19.0,11111222 
ADCP,ioos:station:wmo:42361:1,2007-11-21T17:00:00Z,27.5500,-92.4900,19.0,11111222 
ADCP,ioos:station:wmo:42361:1,2007-11-21T18:00:00Z,27.5500,-92.4900,19.0,11111222 
ADCP,ioos:station:wmo:42361:1,2007-11-21T19:00:00Z,27.5500,-92.4900,20.0,11111222 
ADCP,ioos:station:wmo:42361:1,2007-11-21T20:00:00Z,27.5500,-92.4900,19.0,11111222 
ADCP,ioos:station:wmo:42361:1,2007-11-21T21:00:00Z,27.5500,-92.4900,19.0,11111222 
ADCP,ioos:station:wmo:42361:1,2007-11-21T22:00:00Z,27.5500,-92.4900,19.0,11111222 
ADCP,ioos:station:wmo:42361:1,2007-11-21T23:00:00Z,27.5500,-92.4900,19.0,11111222 
ADCP,ioos:station:wmo:42361:1,2007-11-22T00:00:00Z,27.5500,-92.4900,19.0,11111222 
ADCP,ioos:station:wmo:42361:1,2007-11-22T01:00:00Z,27.5500,-92.4900,19.0,11111222 
ADCP,ioos:station:wmo:42361:1,2007-11-22T02:00:00Z,27.5500,-92.4900,19.0,11111222 
ADCP,ioos:station:wmo:42361:1,2007-11-22T03:00:00Z,27.5500,-92.4900,20.0,11111222 
ADCP,ioos:station:wmo:42361:1,2007-11-22T04:00:00Z,27.5500,-92.4900,20.0,11111222 
ADCP,ioos:station:wmo:42361:1,2007-11-22T05:00:00Z,27.5500,-92.4900,20.0,11111222 
ADCP,ioos:station:wmo:42361:1,2007-11-22T06:00:00Z,27.5500,-92.4900,20.0,11111222 
ADCP,ioos:station:wmo:42361:1,2007-11-22T07:00:00Z,27.5500,-92.4900,20.0,11111222 
ADCP,ioos:station:wmo:42361:1,2007-11-22T08:00:00Z,27.5500,-92.4900,20.0,11111222 
ADCP,ioos:station:wmo:42361:1,2007-11-22T09:00:00Z,27.5500,-92.4900,18.0,11111222 
ADCP,ioos:station:wmo:42361:1,2007-11-22T10:00:00Z,27.5500,-92.4900,17.0,11111222 
ADCP,ioos:station:wmo:42361:1,2007-11-22T11:00:00Z,27.5500,-92.4900,16.0,11111222 
ADCP,ioos:station:wmo:42361:1,2007-11-22T12:00:00Z,27.5500,-92.4900,16.0,11111222 
ADCP,ioos:station:wmo:42361:1,2007-11-22T13:00:00Z,27.5500,-92.4900,17.0,11111222 
ADCP,ioos:station:wmo:42361:1,2007-11-22T14:00:00Z,27.5500,-92.4900,17.0,11111222 
ADCP,ioos:station:wmo:42361:1,2007-11-22T15:00:00Z,27.5500,-92.4900,18.0,11111222 
ADCP,ioos:station:wmo:42361:1,2007-11-22T16:00:00Z,27.5500,-92.4900,18.0,11111222 
ADCP,ioos:station:wmo:42361:1,2007-11-22T17:00:00Z,27.5500,-92.4900,17.0,11111222 
ADCP,ioos:station:wmo:42361:1,2007-11-22T18:00:00Z,27.5500,-92.4900,16.0,11111222 
ADCP,ioos:station:wmo:42361:1,2007-11-22T19:00:00Z,27.5500,-92.4900,16.0,11111222 
ADCP,ioos:station:wmo:42361:1,2007-11-22T20:00:00Z,27.5500,-92.4900,16.0,11111222 
ADCP,ioos:station:wmo:42361:1,2007-11-22T21:00:00Z,27.5500,-92.4900,14.0,11111222 
ADCP,ioos:station:wmo:42361:1,2007-11-22T22:00:00Z,27.5500,-92.4900,15.0,11111222 
ADCP,ioos:station:wmo:42361:1,2007-11-22T23:00:00Z,27.5500,-92.4900,14.0,11111222 
ADCP,ioos:station:wmo:42361:1,2007-11-23T00:00:00Z,27.5500,-92.4900,14.0,11111222 
ADCP,ioos:station:wmo:42361:1,2007-11-23T01:00:00Z,27.5500,-92.4900,14.0,11111222 
ADCP,ioos:station:wmo:42361:1,2007-11-23T02:00:00Z,27.5500,-92.4900,12.0,11111222 
ADCP,ioos:station:wmo:42361:1,2007-11-23T03:00:00Z,27.5500,-92.4900,10.0,11111222 
ADCP,ioos:station:wmo:42361:1,2007-11-23T04:00:00Z,27.5500,-92.4900,11.0,11111222 
ADCP,ioos:station:wmo:42361:1,2007-11-23T05:00:00Z,27.5500,-92.4900,11.0,11111222 
ADCP,ioos:station:wmo:42361:1,2007-11-23T06:00:00Z,27.5500,-92.4900,11.0,11111222 
ADCP,ioos:station:wmo:42361:1,2007-11-23T07:00:00Z,27.5500,-92.4900,11.0,11111222 
ADCP,ioos:station:wmo:42361:1,2007-11-23T08:00:00Z,27.5500,-92.4900,11.0,11111222 
ADCP,ioos:station:wmo:42361:1,2007-11-23T09:00:00Z,27.5500,-92.4900,10.0,11111222 
ADCP,ioos:station:wmo:42361:1,2007-11-23T10:00:00Z,27.5500,-92.4900,10.0,11111222 
ADCP,ioos:station:wmo:42361:1,2007-11-23T11:00:00Z,27.5500,-92.4900,9.0,11111222 
ADCP,ioos:station:wmo:42361:1,2007-11-23T12:00:00Z,27.5500,-92.4900,9.0,11111222 
ADCP,ioos:station:wmo:42361:1,2007-11-23T13:00:00Z,27.5500,-92.4900,9.0,11111222 
ADCP,ioos:station:wmo:42361:1,2007-11-23T14:00:00Z,27.5500,-92.4900,9.0,11111222 
ADCP,ioos:station:wmo:42361:1,2007-11-23T15:00:00Z,27.5500,-92.4900,9.0,11111222 
ADCP,ioos:station:wmo:42361:1,2007-11-23T16:00:00Z,27.5500,-92.4900,9.0,11111222 
ADCP,ioos:station:wmo:42361:1,2007-11-23T17:00:00Z,27.5500,-92.4900,9.0,11111222 
ADCP,ioos:station:wmo:42361:1,2007-11-23T18:00:00Z,27.5500,-92.4900,9.0,11111222 
ADCP,ioos:station:wmo:42361:1,2007-11-23T19:00:00Z,27.5500,-92.4900,10.0,11111222 
ADCP,ioos:station:wmo:42361:1,2007-11-23T20:00:00Z,27.5500,-92.4900,10.0,11111222 
ADCP,ioos:station:wmo:42361:1,2007-11-23T21:00:00Z,27.5500,-92.4900,11.0,11111222 
ADCP,ioos:station:wmo:42361:1,2007-11-23T22:00:00Z,27.5500,-92.4900,12.0,11111222 
ADCP,ioos:station:wmo:42361:1,2007-11-23T23:00:00Z,27.5500,-92.4900,12.0,11111222 
ADCP,ioos:station:wmo:42361:1,2007-11-24T00:00:00Z,27.5500,-92.4900,13.0,11111222 
ADCP,ioos:station:wmo:42361:1,2007-11-24T01:00:00Z,27.5500,-92.4900,13.0,11111222 
ADCP,ioos:station:wmo:42361:1,2007-11-24T02:00:00Z,27.5500,-92.4900,13.0,11111222 
ADCP,ioos:station:wmo:42361:1,2007-11-24T03:00:00Z,27.5500,-92.4900,14.0,11111222 
ADCP,ioos:station:wmo:42361:1,2007-11-24T04:00:00Z,27.5500,-92.4900,14.0,11111222 
ADCP,ioos:station:wmo:42361:1,2007-11-24T05:00:00Z,27.5500,-92.4900,15.0,11111222 
ADCP,ioos:station:wmo:42361:1,2007-11-24T06:00:00Z,27.5500,-92.4900,14.0,11111222 
ADCP,ioos:station:wmo:42361:1,2007-11-24T07:00:00Z,27.5500,-92.4900,15.0,11111222 
ADCP,ioos:station:wmo:42361:1,2007-11-24T08:00:00Z,27.5500,-92.4900,16.0,11111222 
ADCP,ioos:station:wmo:42361:1,2007-11-24T09:00:00Z,27.5500,-92.4900,16.0,11111222 
ADCP,ioos:station:wmo:42361:1,2007-11-24T10:00:00Z,27.5500,-92.4900,17.0,11111222 
ADCP,ioos:station:wmo:42361:1,2007-11-24T11:00:00Z,27.5500,-92.4900,16.0,11111222 
ADCP,ioos:station:wmo:42361:1,2007-11-24T12:00:00Z,27.5500,-92.4900,16.0,11111222 
ADCP,ioos:station:wmo:42361:1,2007-11-24T13:00:00Z,27.5500,-92.4900,17.0,11111222 
ADCP,ioos:station:wmo:42361:1,2007-11-24T14:00:00Z,27.5500,-92.4900,17.0,11111222 
ADCP,ioos:station:wmo:42361:1,2007-11-24T15:00:00Z,27.5500,-92.4900,17.0,11111222 
ADCP,ioos:station:wmo:42361:1,2007-11-24T16:00:00Z,27.5500,-92.4900,18.0,11111222 
ADCP,ioos:station:wmo:42361:1,2007-11-24T17:00:00Z,27.5500,-92.4900,18.0,11111222 
ADCP,ioos:station:wmo:42361:1,2007-11-24T18:00:00Z,27.5500,-92.4900,19.0,11111222 
ADCP,ioos:station:wmo:42361:1,2007-11-24T19:00:00Z,27.5500,-92.4900,21.0,11111222 
ADCP,ioos:station:wmo:42361:1,2007-11-24T20:00:00Z,27.5500,-92.4900,19.0,11111222 
ADCP,ioos:station:wmo:42361:1,2007-11-24T21:00:00Z,27.5500,-92.4900,18.0,11111222 
ADCP,ioos:station:wmo:42361:1,2007-11-24T22:00:00Z,27.5500,-92.4900,19.0,11111222 
ADCP,ioos:station:wmo:42361:1,2007-11-24T23:00:00Z,27.5500,-92.4900,19.0,11111222 
ADCP,ioos:station:wmo:42361:1,2007-11-25T00:00:00Z,27.5500,-92.4900,18.0,11111222 
ADCP,ioos:station:wmo:42361:1,2007-11-25T01:00:00Z,27.5500,-92.4900,20.0,11111222 
ADCP,ioos:station:wmo:42361:1,2007-11-25T02:00:00Z,27.5500,-92.4900,20.0,11111222 
ADCP,ioos:station:wmo:42361:1,2007-11-25T03:00:00Z,27.5500,-92.4900,20.0,11111222 
ADCP,ioos:station:wmo:42361:1,2007-11-25T04:00:00Z,27.5500,-92.4900,20.0,11111222 
ADCP,ioos:station:wmo:42361:1,2007-11-25T05:00:00Z,27.5500,-92.4900,20.0,11111222 
ADCP,ioos:station:wmo:42361:1,2007-11-25T06:00:00Z,27.5500,-92.4900,21.0,11111222 
ADCP,ioos:station:wmo:42361:1,2007-11-25T07:00:00Z,27.5500,-92.4900,21.0,11111222 
ADCP,ioos:station:wmo:42361:1,2007-11-25T08:00:00Z,27.5500,-92.4900,21.0,11111222 
ADCP,ioos:station:wmo:42361:1,2007-11-25T09:00:00Z,27.5500,-92.4900,21.0,11111222 
ADCP,ioos:station:wmo:42361:1,2007-11-25T10:00:00Z,27.5500,-92.4900,22.0,11111222 
ADCP,ioos:station:wmo:42361:1,2007-11-25T11:00:00Z,27.5500,-92.4900,22.0,11111222 
ADCP,ioos:station:wmo:42361:1,2007-11-25T12:00:00Z,27.5500,-92.4900,22.0,11111222 
ADCP,ioos:station:wmo:42361:1,2007-11-25T13:00:00Z,27.5500,-92.4900,22.0,11111222 
ADCP,ioos:station:wmo:42361:1,2007-11-25T14:00:00Z,27.5500,-92.4900,22.0,11111222 
ADCP,ioos:station:wmo:42361:1,2007-11-25T15:00:00Z,27.5500,-92.4900,22.0,11111222 
ADCP,ioos:station:wmo:42361:1,2007-11-25T16:00:00Z,27.5500,-92.4900,23.0,11111222 
ADCP,ioos:station:wmo:42361:1,2007-11-25T17:00:00Z,27.5500,-92.4900,23.0,11111222 
ADCP,ioos:station:wmo:42361:1,2007-11-25T18:00:00Z,27.5500,-92.4900,23.0,11111222 
ADCP,ioos:station:wmo:42361:1,2007-11-25T19:00:00Z,27.5500,-92.4900,23.0,11111222 
ADCP,ioos:station:wmo:42361:1,2007-11-25T20:00:00Z,27.5500,-92.4900,22.0,11111222 
ADCP,ioos:station:wmo:42361:1,2007-11-25T21:00:00Z,27.5500,-92.4900,21.0,11111222 
ADCP,ioos:station:wmo:42361:1,2007-11-25T22:00:00Z,27.5500,-92.4900,18.0,11111222 
ADCP,ioos:station:wmo:42361:1,2007-11-25T23:00:00Z,27.5500,-92.4900,18.0,11111222 
ADCP,ioos:station:wmo:42361:1,2007-11-26T00:00:00Z,27.5500,-92.4900,18.0,11111222 
ADCP,ioos:station:wmo:42361:1,2007-11-26T01:00:00Z,27.5500,-92.4900,17.0,11111222 
ADCP,ioos:station:wmo:42361:1,2007-11-26T02:00:00Z,27.5500,-92.4900,17.0,11111222 
ADCP,ioos:station:wmo:42361:1,2007-11-26T03:00:00Z,27.5500,-92.4900,18.0,11111222 
ADCP,ioos:station:wmo:42361:1,2007-11-26T04:00:00Z,27.5500,-92.4900,18.0,11111222 
ADCP,ioos:station:wmo:42361:1,2007-11-26T05:00:00Z,27.5500,-92.4900,17.0,11111222 
ADCP,ioos:station:wmo:42361:1,2007-11-26T06:00:00Z,27.5500,-92.4900,16.0,11111222 
ADCP,ioos:station:wmo:42361:1,2007-11-26T07:00:00Z,27.5500,-92.4900,16.0,11111222 
ADCP,ioos:station:wmo:42361:1,2007-11-26T08:00:00Z,27.5500,-92.4900,15.0,11111222 
ADCP,ioos:station:wmo:42361:1,2007-11-26T09:00:00Z,27.5500,-92.4900,13.0,11111222 
ADCP,ioos:station:wmo:42361:1,2007-11-26T10:00:00Z,27.5500,-92.4900,14.0,11111222 
ADCP,ioos:station:wmo:42361:1,2007-11-26T11:00:00Z,27.5500,-92.4900,13.0,11111222 
ADCP,ioos:station:wmo:42361:1,2007-11-26T12:00:00Z,27.5500,-92.4900,12.0,11111222 
ADCP,ioos:station:wmo:42361:1,2007-11-26T13:00:00Z,27.5500,-92.4900,12.0,11111222 
ADCP,ioos:station:wmo:42361:1,2007-11-26T14:00:00Z,27.5500,-92.4900,12.0,11111222 
ADCP,ioos:station:wmo:42361:1,2007-11-26T15:00:00Z,27.5500,-92.4900,12.0,11111222 
ADCP,ioos:station:wmo:42361:1,2007-11-26T16:00:00Z,27.5500,-92.4900,12.0,11111222 
ADCP,ioos:station:wmo:42361:1,2007-11-26T17:00:00Z,27.5500,-92.4900,11.0,11111222 
ADCP,ioos:station:wmo:42361:1,2007-11-26T18:00:00Z,27.5500,-92.4900,11.0,11111222 
ADCP,ioos:station:wmo:42361:1,2007-11-26T19:00:00Z,27.5500,-92.4900,11.0,11111222 
ADCP,ioos:station:wmo:42361:1,2007-11-26T20:00:00Z,27.5500,-92.4900,11.0,11111222 
ADCP,ioos:station:wmo:42361:1,2007-11-26T21:00:00Z,27.5500,-92.4900,12.0,11111222 
ADCP,ioos:station:wmo:42361:1,2007-11-26T22:00:00Z,27.5500,-92.4900,11.0,11111222 
ADCP,ioos:station:wmo:42361:1,2007-11-26T23:00:00Z,27.5500,-92.4900,11.0,11111222 
ADCP,ioos:station:wmo:42361:1,2007-11-27T00:00:00Z,27.5500,-92.4900,11.0,11111222 
ADCP,ioos:station:wmo:42361:1,2007-11-27T01:00:00Z,27.5500,-92.4900,11.0,11111222 
ADCP,ioos:station:wmo:42361:1,2007-11-27T02:00:00Z,27.5500,-92.4900,11.0,11111222 
ADCP,ioos:station:wmo:42361:1,2007-11-27T03:00:00Z,27.5500,-92.4900,11.0,11111222 
ADCP,ioos:station:wmo:42361:1,2007-11-27T04:00:00Z,27.5500,-92.4900,11.0,11111222 
ADCP,ioos:station:wmo:42361:1,2007-11-27T05:00:00Z,27.5500,-92.4900,11.0,11111222 
ADCP,ioos:station:wmo:42361:1,2007-11-27T06:00:00Z,27.5500,-92.4900,10.0,11111222 
ADCP,ioos:station:wmo:42361:1,2007-11-27T07:00:00Z,27.5500,-92.4900,11.0,11111222 
ADCP,ioos:station:wmo:42361:1,2007-11-27T08:00:00Z,27.5500,-92.4900,11.0,11111222 
ADCP,ioos:station:wmo:42361:1,2007-11-27T09:00:00Z,27.5500,-92.4900,10.0,11111222 
ADCP,ioos:station:wmo:42361:1,2007-11-27T10:00:00Z,27.5500,-92.4900,9.0,11111222 
ADCP,ioos:station:wmo:42361:1,2007-11-27T11:00:00Z,27.5500,-92.4900,9.0,11111222 
ADCP,ioos:station:wmo:42361:1,2007-11-27T12:00:00Z,27.5500,-92.4900,9.0,11111222 
ADCP,ioos:station:wmo:42361:1,2007-11-27T13:00:00Z,27.5500,-92.4900,9.0,11111222 
ADCP,ioos:station:wmo:42361:1,2007-11-27T14:00:00Z,27.5500,-92.4900,9.0,11111222 
ADCP,ioos:station:wmo:42361:1,2007-11-27T15:00:00Z,27.5500,-92.4900,9.0,11111222 
ADCP,ioos:station:wmo:42361:1,2007-11-27T16:00:00Z,27.5500,-92.4900,9.0,11111222 
ADCP,ioos:station:wmo:42361:1,2007-11-27T17:00:00Z,27.5500,-92.4900,10.0,11111222 
ADCP,ioos:station:wmo:42361:1,2007-11-27T18:00:00Z,27.5500,-92.4900,10.0,11111222 
ADCP,ioos:station:wmo:42361:1,2007-11-27T19:00:00Z,27.5500,-92.4900,9.0,11111222 
ADCP,ioos:station:wmo:42361:1,2007-11-27T20:00:00Z,27.5500,-92.4900,9.0,11111222 
ADCP,ioos:station:wmo:42361:1,2007-11-27T21:00:00Z,27.5500,-92.4900,10.0,11111222 
ADCP,ioos:station:wmo:42361:1,2007-11-27T22:00:00Z,27.5500,-92.4900,10.0,11111222 
ADCP,ioos:station:wmo:42361:1,2007-11-27T23:00:00Z,27.5500,-92.4900,11.0,11111222 
ADCP,ioos:station:wmo:42361:1,2007-11-28T00:00:00Z,27.5500,-92.4900,11.0,11111222 
ADCP,ioos:station:wmo:42361:1,2007-11-28T01:00:00Z,27.5500,-92.4900,11.0,11111222 
ADCP,ioos:station:wmo:42361:1,2007-11-28T02:00:00Z,27.5500,-92.4900,11.0,11111222 
ADCP,ioos:station:wmo:42361:1,2007-11-28T03:00:00Z,27.5500,-92.4900,11.0,11111222 
ADCP,ioos:station:wmo:42361:1,2007-11-28T04:00:00Z,27.5500,-92.4900,11.0,11111222 
ADCP,ioos:station:wmo:42361:1,2007-11-28T05:00:00Z,27.5500,-92.4900,12.0,11111222 
ADCP,ioos:station:wmo:42361:1,2007-11-28T06:00:00Z,27.5500,-92.4900,11.0,11111222 
ADCP,ioos:station:wmo:42361:1,2007-11-28T07:00:00Z,27.5500,-92.4900,12.0,11111222 
ADCP,ioos:station:wmo:42361:1,2007-11-28T08:00:00Z,27.5500,-92.4900,12.0,11111222 
ADCP,ioos:station:wmo:42361:1,2007-11-28T09:00:00Z,27.5500,-92.4900,12.0,11111222 
ADCP,ioos:station:wmo:42361:1,2007-11-28T10:00:00Z,27.5500,-92.4900,12.0,11111222 
ADCP,ioos:station:wmo:42361:1,2007-11-28T11:00:00Z,27.5500,-92.4900,11.0,11111222 
ADCP,ioos:station:wmo:42361:1,2007-11-28T12:00:00Z,27.5500,-92.4900,12.0,11111222 
ADCP,ioos:station:wmo:42361:1,2007-11-28T13:00:00Z,27.5500,-92.4900,12.0,11111222 
ADCP,ioos:station:wmo:42361:1,2007-11-28T14:00:00Z,27.5500,-92.4900,12.0,11111222 
ADCP,ioos:station:wmo:42361:1,2007-11-28T15:00:00Z,27.5500,-92.4900,12.0,11111222 
ADCP,ioos:station:wmo:42361:1,2007-11-28T16:00:00Z,27.5500,-92.4900,13.0,11111222 
ADCP,ioos:station:wmo:42361:1,2007-11-28T17:00:00Z,27.5500,-92.4900,13.0,11111222 
ADCP,ioos:station:wmo:42361:1,2007-11-28T18:00:00Z,27.5500,-92.4900,14.0,11111222 
ADCP,ioos:station:wmo:42361:1,2007-11-28T19:00:00Z,27.5500,-92.4900,14.0,11111222 
ADCP,ioos:station:wmo:42361:1,2007-11-28T20:00:00Z,27.5500,-92.4900,14.0,11111222 
ADCP,ioos:station:wmo:42361:1,2007-11-28T21:00:00Z,27.5500,-92.4900,14.0,11111222 
ADCP,ioos:station:wmo:42361:1,2007-11-28T22:00:00Z,27.5500,-92.4900,14.0,11111222 
ADCP,ioos:station:wmo:42361:1,2007-11-28T23:00:00Z,27.5500,-92.4900,15.0,11111222 
ADCP,ioos:station:wmo:42361:1,2007-11-29T00:00:00Z,27.5500,-92.4900,15.0,11111222 
ADCP,ioos:station:wmo:42361:1,2007-11-29T01:00:00Z,27.5500,-92.4900,15.0,11111222 
ADCP,ioos:station:wmo:42361:1,2007-11-29T02:00:00Z,27.5500,-92.4900,14.0,11111222 
ADCP,ioos:station:wmo:42361:1,2007-11-29T03:00:00Z,27.5500,-92.4900,14.0,11111222 
ADCP,ioos:station:wmo:42361:1,2007-11-29T04:00:00Z,27.5500,-92.4900,14.0,11111222 
ADCP,ioos:station:wmo:42361:1,2007-11-29T05:00:00Z,27.5500,-92.4900,14.0,11111222 
ADCP,ioos:station:wmo:42361:1,2007-11-29T06:00:00Z,27.5500,-92.4900,15.0,11111222 
ADCP,ioos:station:wmo:42361:1,2007-11-29T07:00:00Z,27.5500,-92.4900,15.0,11111222 
ADCP,ioos:station:wmo:42361:1,2007-11-29T08:00:00Z,27.5500,-92.4900,15.0,11111222 
ADCP,ioos:station:wmo:42361:1,2007-11-29T09:00:00Z,27.5500,-92.4900,15.0,11111222 
ADCP,ioos:station:wmo:42361:1,2007-11-29T10:00:00Z,27.5500,-92.4900,15.0,11111222 
ADCP,ioos:station:wmo:42361:1,2007-11-29T11:00:00Z,27.5500,-92.4900,15.0,11111222 
ADCP,ioos:station:wmo:42361:1,2007-11-29T12:00:00Z,27.5500,-92.4900,16.0,11111222 
ADCP,ioos:station:wmo:42361:1,2007-11-29T13:00:00Z,27.5500,-92.4900,17.0,11111222 
ADCP,ioos:station:wmo:42361:1,2007-11-29T14:00:00Z,27.5500,-92.4900,16.0,11111222 
ADCP,ioos:station:wmo:42361:1,2007-11-29T15:00:00Z,27.5500,-92.4900,16.0,11111222 
ADCP,ioos:station:wmo:42361:1,2007-11-29T16:00:00Z,27.5500,-92.4900,16.0,11111222 
ADCP,ioos:station:wmo:42361:1,2007-11-29T17:00:00Z,27.5500,-92.4900,15.0,11111222 
ADCP,ioos:station:wmo:42361:1,2007-11-29T18:00:00Z,27.5500,-92.4900,14.0,11111222 
ADCP,ioos:station:wmo:42361:1,2007-11-29T19:00:00Z,27.5500,-92.4900,16.0,11111222 
ADCP,ioos:station:wmo:42361:1,2007-11-29T20:00:00Z,27.5500,-92.4900,16.0,11111222 
ADCP,ioos:station:wmo:42361:1,2007-11-29T21:00:00Z,27.5500,-92.4900,16.0,11111222 
ADCP,ioos:station:wmo:42361:1,2007-11-29T22:00:00Z,27.5500,-92.4900,16.0,11111222 
ADCP,ioos:station:wmo:42361:1,2007-11-29T23:00:00Z,27.5500,-92.4900,16.0,11111222 
ADCP,ioos:station:wmo:42361:1,2007-11-30T00:00:00Z,27.5500,-92.4900,16.0,11111222 
ADCP,ioos:station:wmo:42361:1,2007-11-30T01:00:00Z,27.5500,-92.4900,16.0,11111222 
ADCP,ioos:station:wmo:42361:1,2007-11-30T02:00:00Z,27.5500,-92.4900,16.0,11111222 
ADCP,ioos:station:wmo:42361:1,2007-11-30T03:00:00Z,27.5500,-92.4900,16.0,11111222 
ADCP,ioos:station:wmo:42361:1,2007-11-30T04:00:00Z,27.5500,-92.4900,16.0,11111222 
ADCP,ioos:station:wmo:42361:1,2007-11-30T05:00:00Z,27.5500,-92.4900,16.0,11111222 
ADCP,ioos:station:wmo:42361:1,2007-11-30T06:00:00Z,27.5500,-92.4900,16.0,11111222 
ADCP,ioos:station:wmo:42361:1,2007-11-30T07:00:00Z,27.5500,-92.4900,16.0,11111222 
ADCP,ioos:station:wmo:42361:1,2007-11-30T08:00:00Z,27.5500,-92.4900,16.0,11111222 
ADCP,ioos:station:wmo:42361:1,2007-11-30T09:00:00Z,27.5500,-92.4900,16.0,11111222 
ADCP,ioos:station:wmo:42361:1,2007-11-30T10:00:00Z,27.5500,-92.4900,16.0,11111222 
ADCP,ioos:station:wmo:42361:1,2007-11-30T11:00:00Z,27.5500,-92.4900,16.0,11111222 
ADCP,ioos:station:wmo:42361:1,2007-11-30T12:00:00Z,27.5500,-92.4900,16.0,11111222 
ADCP,ioos:station:wmo:42361:1,2007-11-30T13:00:00Z,27.5500,-92.4900,16.0,11111222 
ADCP,ioos:station:wmo:42361:1,2007-11-30T14:00:00Z,27.5500,-92.4900,16.0,11111222 
ADCP,ioos:station:wmo:42361:1,2007-11-30T15:00:00Z,27.5500,-92.4900,16.0,11111222 
ADCP,ioos:station:wmo:42361:1,2007-11-30T16:00:00Z,27.5500,-92.4900,16.0,11111222 
ADCP,ioos:station:wmo:42361:1,2007-11-30T17:00:00Z,27.5500,-92.4900,16.0,11111222 
ADCP,ioos:station:wmo:42361:1,2007-11-30T18:00:00Z,27.5500,-92.4900,16.0,11111222 
ADCP,ioos:station:wmo:42361:1,2007-11-30T19:00:00Z,27.5500,-92.4900,16.0,11111222 
ADCP,ioos:station:wmo:42361:1,2007-11-30T20:00:00Z,27.5500,-92.4900,16.0,11111222 
ADCP,ioos:station:wmo:42361:1,2007-11-30T21:00:00Z,27.5500,-92.4900,16.0,11111222 
ADCP,ioos:station:wmo:42361:1,2007-11-30T22:00:00Z,27.5500,-92.4900,16.0,11111222 
ADCP,ioos:station:wmo:42361:1,2007-11-30T23:00:00Z,27.5500,-92.4900,16.0,11111222 
 
DISCLAIMER: The Gulf of Mexico Coastal and Ocean Observing (GCOOS) Data Portal aggregates data from the regional data providers for the convenience of all data users. Data published on this website should not be used for navigation or certain other uses as we cannot guarantee data accuracy or availability. The data and delivery services are provided 'as is' without warranty of any kind. Data Source: Gulf of Mexico Coastal Ocean Observing System Data Portal (http://data.gcoos.org/) 
